TimeCDT,TemperatureF,Dew PointF,Humidity,Sea Level PressureIn,VisibilityMPH,Wind Direction,Wind SpeedMPH,Gust SpeedMPH,PrecipitationIn,Events,Conditions,WindDirDegrees,DateUTC
12:53 AM,73.0,62.1,68,30.14,10.0,Calm,Calm,-,N/A,,Clear,0,2013-09-06 05:53:00
1:53 AM,71.1,63.0,75,30.13,10.0,Calm,Calm,-,N/A,,Clear,0,2013-09-06 06:53:00
2:53 AM,69.1,63.0,81,30.13,10.0,Calm,Calm,-,N/A,,Clear,0,2013-09-06 07:53:00
3:53 AM,66.9,62.1,84,30.12,10.0,SE,3.5,-,N/A,,Clear,140,2013-09-06 08:53:00
4:53 AM,68.0,62.1,81,30.12,10.0,South,4.6,-,N/A,,Clear,190,2013-09-06 09:53:00
5:53 AM,64.9,62.1,90,30.13,10.0,South,3.5,-,N/A,,Clear,170,2013-09-06 10:53:00
6:53 AM,66.0,62.1,87,30.14,10.0,Calm,Calm,-,N/A,,Clear,0,2013-09-06 11:53:00
7:53 AM,64.9,63.0,93,30.14,10.0,South,4.6,-,N/A,,Clear,180,2013-09-06 12:53:00
8:53 AM,70.0,64.0,81,30.15,10.0,South,3.5,-,N/A,,Clear,190,2013-09-06 13:53:00
9:53 AM,73.9,64.9,73,30.16,-9999.0,North,-9999.0,-,N/A,,Clear,0,2013-09-06 14:53:00
10:53 AM,77.0,66.0,69,30.16,10.0,South,3.5,-,N/A,,Clear,170,2013-09-06 15:53:00
11:53 AM,82.0,66.0,58,30.15,10.0,Calm,Calm,-,N/A,,Clear,0,2013-09-06 16:53:00
12:53 PM,84.0,64.0,51,30.13,10.0,SSE,6.9,-,N/A,,Clear,160,2013-09-06 17:53:00
1:53 PM,86.0,64.0,48,30.11,10.0,SE,5.8,-,N/A,,Clear,140,2013-09-06 18:53:00
2:53 PM,87.1,63.0,44,30.08,10.0,South,10.4,-,N/A,,Clear,170,2013-09-06 19:53:00
3:53 PM,87.1,60.1,40,30.06,10.0,SW,6.9,-,N/A,,Clear,220,2013-09-06 20:53:00
4:53 PM,87.1,62.1,43,30.04,10.0,South,5.8,-,N/A,,Clear,180,2013-09-06 21:53:00
5:53 PM,86.0,63.0,46,30.04,10.0,SSE,4.6,-,N/A,,Clear,160,2013-09-06 22:53:00
6:53 PM,82.0,66.9,60,30.02,10.0,SSE,4.6,-,N/A,,Clear,160,2013-09-06 23:53:00
7:53 PM,75.9,64.9,69,30.02,10.0,SE,4.6,-,N/A,,Clear,140,2013-09-07 00:53:00
8:53 PM,72.0,63.0,73,30.03,10.0,SE,4.6,-,N/A,,Clear,140,2013-09-07 01:53:00
9:53 PM,71.1,62.1,73,30.03,10.0,SSE,5.8,-,N/A,,Clear,160,2013-09-07 02:53:00
10:53 PM,69.1,62.1,78,30.03,10.0,South,6.9,-,N/A,,Clear,170,2013-09-07 03:53:00
11:53 PM,68.0,61.0,78,30.01,10.0,South,6.9,-,N/A,,Clear,170,2013-09-07 04:53:00